Time,TemperatureF,DewpointF,PressureIn,WindDirection,WindDirectionDegrees,WindSpeedMPH,WindSpeedGustMPH,Humidity,HourlyPrecipIn,Conditions,Clouds,dailyrainin,SoftwareType,DateUTC
2013-08-30 00:11:00,62.0,61.0,30.09,South,178,17.0,24.0,97,0.01,,,0.28,,2013-08-30 07:11:00,
2013-08-30 00:21:00,61.0,60.0,30.09,South,182,15.0,24.0,97,0.00,,,0.28,,2013-08-30 07:21:00,
2013-08-30 00:43:00,61.0,60.0,30.09,SSW,196,15.0,20.0,97,0.00,,,0.28,,2013-08-30 07:43:00,
2013-08-30 00:53:00,60.0,59.0,30.09,SSW,200,13.0,20.0,97,0.00,,,0.28,,2013-08-30 07:53:00,
2013-08-30 01:11:00,61.0,60.0,30.09,SSE,165,13.0,18.0,97,0.00,,,0.28,,2013-08-30 08:11:00,
2013-08-30 01:22:00,61.0,60.0,30.09,South,187,13.0,20.0,97,0.00,,,0.28,,2013-08-30 08:22:00,
2013-08-30 01:42:00,61.0,60.0,30.10,SSW,196,10.0,18.0,97,0.00,,,0.28,,2013-08-30 08:42:00,
2013-08-30 01:52:00,61.0,60.0,30.10,South,181,11.0,16.0,97,0.00,,,0.28,,2013-08-30 08:52:00,
2013-08-30 02:12:00,61.0,60.0,30.10,South,190,9.0,16.0,98,0.00,,,0.28,,2013-08-30 09:12:00,
2013-08-30 02:22:00,61.0,60.0,30.10,SSW,200,9.0,14.0,97,0.00,,,0.28,,2013-08-30 09:22:00,
2013-08-30 02:44:00,61.0,60.0,30.10,SSW,192,6.0,12.0,98,0.00,,,0.28,,2013-08-30 09:44:00,
2013-08-30 02:53:00,61.0,60.0,30.10,SSW,193,5.0,10.0,97,0.00,,,0.28,,2013-08-30 09:53:00,
2013-08-30 03:12:00,61.0,60.0,30.11,South,179,2.0,7.0,97,0.00,,,0.28,,2013-08-30 10:12:00,
2013-08-30 03:23:00,60.0,59.0,30.10,South,181,4.0,7.0,97,0.00,,,0.28,,2013-08-30 10:23:00,
2013-08-30 03:43:00,60.0,59.0,30.11,SSW,200,2.0,4.0,97,0.00,,,0.28,,2013-08-30 10:43:00,
2013-08-30 03:53:00,59.0,58.0,30.11,South,182,4.0,8.0,97,0.00,,,0.28,,2013-08-30 10:53:00,
2013-08-30 04:12:00,59.0,58.0,30.10,SSE,154,0.0,8.0,97,0.00,,,0.28,,2013-08-30 11:12:00,
2013-08-30 04:22:00,58.0,57.0,30.11,SSW,211,8.0,11.0,97,0.00,,,0.28,,2013-08-30 11:22:00,
2013-08-30 04:41:00,57.0,56.0,30.11,South,171,6.0,8.0,98,0.00,,,0.28,,2013-08-30 11:41:00,
2013-08-30 04:52:00,58.0,57.0,30.10,South,182,6.0,9.0,98,0.00,,,0.28,,2013-08-30 11:52:00,
2013-08-30 05:12:00,59.0,58.0,30.10,SSE,162,3.0,8.0,98,0.00,,,0.28,,2013-08-30 12:12:00,
2013-08-30 05:21:00,58.0,57.0,30.10,South,183,5.0,6.0,97,0.00,,,0.28,,2013-08-30 12:21:00,
2013-08-30 05:42:00,58.0,57.0,30.11,South,189,4.0,7.0,97,0.00,,,0.28,,2013-08-30 12:42:00,
2013-08-30 05:52:00,57.0,56.0,30.11,SSW,194,4.0,7.0,97,0.00,,,0.28,,2013-08-30 12:52:00,
2013-08-30 06:11:00,58.0,57.0,30.11,SSW,192,0.0,6.0,97,0.00,,,0.28,,2013-08-30 13:11:00,
2013-08-30 06:21:00,58.0,57.0,30.12,SSW,192,0.0,0.0,97,0.00,,,0.28,,2013-08-30 13:21:00,
2013-08-30 06:52:00,59.0,58.0,30.13,South,175,0.0,0.0,98,0.00,,,0.24,,2013-08-30 13:52:00,
2013-08-30 07:11:00,58.0,57.0,30.13,South,175,0.0,0.0,97,0.00,,,0.24,,2013-08-30 14:11:00,
2013-08-30 07:21:00,58.0,57.0,30.14,ESE,123,1.0,3.0,98,0.00,,,0.24,,2013-08-30 14:21:00,
2013-08-30 07:42:00,58.0,57.0,30.14,NE,42,0.0,3.0,98,0.00,,,0.19,,2013-08-30 14:42:00,
2013-08-30 07:52:00,58.0,57.0,30.14,NNE,16,1.0,2.0,97,0.00,,,0.19,,2013-08-30 14:52:00,
2013-08-30 08:11:00,57.0,56.0,30.14,NNW,339,2.0,3.0,98,0.00,,,0.19,,2013-08-30 15:11:00,
2013-08-30 08:22:00,57.0,56.0,30.15,NNW,348,0.0,0.0,98,0.00,,,0.18,,2013-08-30 15:22:00,
2013-08-30 08:43:00,58.0,57.0,30.15,NNW,348,0.0,0.0,98,0.00,,,0.18,,2013-08-30 15:43:00,
2013-08-30 08:54:00,59.0,58.0,30.15,NNW,348,0.0,0.0,98,0.00,,,0.18,,2013-08-30 15:54:00,
2013-08-30 09:13:00,59.0,58.0,30.15,NNE,13,2.0,5.0,98,0.00,,,0.18,,2013-08-30 16:13:00,
2013-08-30 09:24:00,60.0,59.0,30.15,North,5,2.0,5.0,98,0.00,,,0.18,,2013-08-30 16:24:00,
2013-08-30 09:43:00,61.0,60.0,30.15,North,5,0.0,5.0,98,0.00,,,0.18,,2013-08-30 16:43:00,
2013-08-30 09:53:00,61.0,60.0,30.15,North,360,3.0,5.0,98,0.00,,,0.18,,2013-08-30 16:53:00,
2013-08-30 10:13:00,61.0,60.0,30.15,North,352,2.0,5.0,98,0.00,,,0.18,,2013-08-30 17:13:00,
2013-08-30 10:23:00,61.0,60.0,30.15,North,358,2.0,6.0,98,0.00,,,0.14,,2013-08-30 17:23:00,
2013-08-30 10:42:00,62.0,61.0,30.15,North,359,5.0,7.0,98,0.00,,,0.14,,2013-08-30 17:42:00,
2013-08-30 10:53:00,61.0,60.0,30.15,North,360,6.0,7.0,97,0.00,,,0.14,,2013-08-30 17:53:00,
2013-08-30 11:12:00,61.0,60.0,30.15,North,8,7.0,8.0,97,0.00,,,0.14,,2013-08-30 18:12:00,
2013-08-30 11:21:00,60.0,59.0,30.15,North,358,7.0,9.0,97,0.00,,,0.14,,2013-08-30 18:21:00,
2013-08-30 11:42:00,59.0,58.0,30.15,North,5,7.0,9.0,97,0.00,,,0.14,,2013-08-30 18:42:00,
2013-08-30 11:52:00,60.0,59.0,30.15,North,2,7.0,9.0,98,0.00,,,0.14,,2013-08-30 18:52:00,
2013-08-30 12:12:00,60.0,59.0,30.14,North,8,9.0,11.0,98,0.00,,,0.14,,2013-08-30 19:12:00,
2013-08-30 12:21:00,60.0,59.0,30.15,North,8,9.0,13.0,97,0.00,,,0.11,,2013-08-30 19:21:00,
2013-08-30 12:53:00,61.0,60.0,30.14,North,10,9.0,11.0,98,0.00,,,0.11,,2013-08-30 19:53:00,
2013-08-30 13:11:00,61.0,60.0,30.13,NNE,19,8.0,11.0,97,0.00,,,0.11,,2013-08-30 20:11:00,
2013-08-30 13:22:00,61.0,60.0,30.13,North,11,8.0,10.0,97,0.00,,,0.08,,2013-08-30 20:22:00,
2013-08-30 13:52:00,62.0,61.0,30.12,North,4,9.0,11.0,97,0.00,,,0.08,,2013-08-30 20:52:00,
2013-08-30 14:11:00,63.0,62.0,30.12,North,358,8.0,10.0,96,0.00,,,0.08,,2013-08-30 21:11:00,
2013-08-30 14:21:00,64.0,63.0,30.13,North,354,8.0,10.0,96,0.00,,,0.07,,2013-08-30 21:21:00,
2013-08-30 14:55:00,64.0,63.0,30.12,North,9,10.0,14.0,95,0.00,,,0.07,,2013-08-30 21:55:00,
2013-08-30 15:13:00,64.0,62.0,30.12,North,8,11.0,15.0,94,0.00,,,0.07,,2013-08-30 22:13:00,
2013-08-30 15:24:00,63.0,61.0,30.12,NNE,15,14.0,16.0,93,0.00,,,0.07,,2013-08-30 22:24:00,
2013-08-30 15:54:00,62.0,60.0,30.11,NNE,17,13.0,17.0,93,0.00,,,0.07,,2013-08-30 22:54:00,
2013-08-30 16:12:00,63.0,61.0,30.11,North,6,12.0,16.0,93,0.00,,,0.07,,2013-08-30 23:12:00,
2013-08-30 16:22:00,63.0,61.0,30.10,North,11,10.0,16.0,93,0.00,,,0.04,,2013-08-30 23:22:00,
2013-08-30 16:53:00,62.0,60.0,30.10,NNE,21,10.0,15.0,92,0.00,,,0.04,,2013-08-30 23:53:00,
2013-08-30 17:11:00,62.0,60.0,30.10,North,4,11.0,16.0,92,0.00,,,0.04,,2013-08-31 00:11:00,
2013-08-30 17:21:00,63.0,61.0,30.09,North,6,11.0,15.0,92,0.00,,,0.03,,2013-08-31 00:21:00,
2013-08-30 17:42:00,62.0,60.0,30.09,North,356,10.0,15.0,92,0.00,,,0.03,,2013-08-31 00:42:00,
2013-08-30 17:52:00,63.0,61.0,30.09,NNE,13,7.0,13.0,92,0.00,,,0.03,,2013-08-31 00:52:00,
2013-08-30 18:11:00,62.0,60.0,30.09,NNE,13,7.0,9.0,92,0.00,,,0.03,,2013-08-31 01:11:00,
2013-08-30 18:21:00,62.0,59.0,30.09,North,5,8.0,11.0,91,0.00,,,0.02,,2013-08-31 01:21:00,
2013-08-30 18:42:00,62.0,60.0,30.09,North,3,8.0,12.0,92,0.00,,,0.02,,2013-08-31 01:42:00,
2013-08-30 18:52:00,61.0,59.0,30.08,North,6,10.0,15.0,92,0.00,,,0.02,,2013-08-31 01:52:00,
2013-08-30 19:12:00,61.0,59.0,30.07,North,6,10.0,14.0,92,0.00,,,0.02,,2013-08-31 02:12:00,
2013-08-30 19:22:00,61.0,59.0,30.07,North,5,11.0,14.0,92,0.00,,,0.02,,2013-08-31 02:22:00,
2013-08-30 19:42:00,60.0,58.0,30.07,North,6,9.0,13.0,93,0.00,,,0.02,,2013-08-31 02:42:00,
2013-08-30 19:52:00,60.0,58.0,30.07,North,8,8.0,13.0,93,0.00,,,0.02,,2013-08-31 02:52:00,
2013-08-30 20:12:00,59.0,57.0,30.07,NNE,14,8.0,10.0,93,0.00,,,0.02,,2013-08-31 03:12:00,
2013-08-30 20:22:00,59.0,57.0,30.06,North,9,9.0,11.0,93,0.00,,,0.02,,2013-08-31 03:22:00,
2013-08-30 20:44:00,58.0,56.0,30.07,North,360,7.0,9.0,94,0.00,,,0.02,,2013-08-31 03:44:00,
2013-08-30 20:54:00,57.0,55.0,30.06,North,6,7.0,9.0,94,0.00,,,0.02,,2013-08-31 03:54:00,
2013-08-30 21:13:00,57.0,55.0,30.06,North,360,6.0,8.0,94,0.00,,,0.02,,2013-08-31 04:13:00,
2013-08-30 21:24:00,57.0,55.0,30.07,NNE,25,3.0,7.0,94,0.00,,,0.02,,2013-08-31 04:24:00,
2013-08-30 21:44:00,56.0,54.0,30.07,NNE,26,0.0,0.0,94,0.00,,,0.02,,2013-08-31 04:44:00,
2013-08-30 21:54:00,56.0,55.0,30.06,NNE,26,0.0,0.0,95,0.00,,,0.02,,2013-08-31 04:54:00,
2013-08-30 22:13:00,56.0,55.0,30.06,NNE,26,0.0,0.0,95,0.00,,,0.02,,2013-08-31 05:13:00,
2013-08-30 22:23:00,56.0,55.0,30.06,North,11,0.0,1.0,95,0.00,,,0.02,,2013-08-31 05:23:00,
2013-08-30 22:42:00,56.0,55.0,30.06,NNE,27,3.0,4.0,95,0.00,,,0.02,,2013-08-31 05:42:00,
2013-08-30 22:52:00,56.0,55.0,30.07,North,355,6.0,8.0,95,0.00,,,0.02,,2013-08-31 05:52:00,
2013-08-30 23:12:00,55.0,54.0,30.06,North,2,8.0,14.0,95,0.00,,,0.02,,2013-08-31 06:12:00,
2013-08-30 23:22:00,55.0,54.0,30.06,North,6,8.0,11.0,96,0.00,,,0.00,,2013-08-31 06:22:00,
2013-08-30 23:42:00,55.0,54.0,30.05,North,351,7.0,9.0,96,0.00,,,0.00,,2013-08-31 06:42:00,
2013-08-30 23:52:00,55.0,54.0,30.05,NNW,348,7.0,10.0,96,0.00,,,0.00,,2013-08-31 06:52:00,